Lexington Weather

Lexington, Massachusetts, USA

70°F
8/17/2022 7:16pm 
  • Lexington Conditions: Overcast
  • Temperature: 69.6°F / 20.9°CColder 0.6°F than last hour.
  • Dew Point: 57.4°FDecreased 1.2°Fsince last hour.
  • Relative Humidity: 65%Decreased 2.0% since last hour.
  • Wind: Calm, 10-min avg: Calm, gust: None
  • Barometer: 29.84 in Steady
  • Visibility: 10 miles
  • Rain Today: 0.00 in
  •   

Regional Weather Roundup
for Boston, MA

        
000
ASUS41 KBOX 111210
RWRBOX

REGIONAL WEATHER ROUNDUP
NATIONAL WEATHER SERVICE BOSTON/NORTON MA
800 AM EDT THU AUG 11 2022

NOTE:  "FAIR" INDICATES FEW OR NO CLOUDS BELOW 12,000 FEET WITH NO 
SIGNIFICANT WEATHER AND/OR OBSTRUCTIONS TO VISIBILITY.

MAZALL-111300-
EASTERN MASSACHUSETTS
  
CITY           SKY/WX    TMP DP  RH WIND       PRES   REMARKS
BOSTON         CLOUDY    69  66  90 SE6       29.93S                  
6HR MIN TEMP:  66; 6HR MAX TEMP:  71;                                

BEVERLY        CLOUDY    69  66  90 CALM      29.92S                  
LAWRENCE       CLOUDY    70  65  84 W3        29.94F                  
BEDFORD        CLOUDY    69  66  90 SW3       29.91F                  
BLUE HILL      NOT AVBL                                               
NORWOOD        CLOUDY    72  66  81 CALM      29.92F                  
MARSHFIELD     PTSUNNY   70  68  94 CALM      29.93R                  
PLYMOUTH       CLOUDY    71  68  90 SE5       29.93S                  
TAUNTON        CLOUDY    72  67  84 SE3       29.92S                  
NEW BEDFORD    PTSUNNY   72  70  93 SW3       29.92S                  
$$

MAZALL-111300-
CAPE COD AND THE ISLANDS
  
CITY           SKY/WX    TMP DP  RH WIND       PRES   REMARKS
FALMOUTH       PTSUNNY   73  68  83 S6        29.93S                  
HYANNIS        CLOUDY    75  67  76 S5        29.92S                  
CHATHAM        CLOUDY    72  65  78 VRB5      29.94S                  
NANTUCKET      CLOUDY    72  68  87 SE10      29.94R                  
MARTHAS VNYRD  MOSUNNY   73  68  84 S8        29.93S                  
$$
 
MAZALL-111300-
CENTRAL AND WESTERN MASSACHUSETTS
  
CITY           SKY/WX    TMP DP  RH WIND       PRES   REMARKS
WORCESTER      SUNNY     66  64  93 W6        29.95S                  
6HR MIN TEMP:  64; 6HR MAX TEMP:  67;                                

FITCHBURG      NOT AVBL                                               
ORANGE         MOSUNNY   65  62  90 CALM      29.95F                  
SPRINGFIELD    PTSUNNY   67  64  90 CALM      29.91F                  
WESTFIELD      PTSUNNY   66  61  84 CALM      29.94S                  
NORTH ADAMS    SUNNY     64  61  90 CALM      29.96S                  
PITTSFIELD     PTSUNNY   62  60  93 CALM      29.96S                  
$$
 
RIZALL-111300-
RHODE ISLAND
  
CITY           SKY/WX    TMP DP  RH WIND       PRES   REMARKS
PROVIDENCE     PTSUNNY   73  69  87 SW8       29.93S                  
6HR MIN TEMP:  69; 6HR MAX TEMP:  73;                                

NEWPORT        CLOUDY    71  69  93 SE8       29.93R                  
BLOCK ISLAND   CLOUDY    72  69  90 SE8       29.93S                  
SMITHFIELD     CLOUDY    70  69  97 CALM      29.94F                  
WESTERLY       CLOUDY    73  70  88 SE6       29.92F                  
$$
 
CTZALL-111300-
CONNECTICUT
  
CITY           SKY/WX    TMP DP  RH WIND       PRES   REMARKS
BRADLEY INTL   PTSUNNY   69  62  78 CALM      29.93F                  
6HR MIN TEMP:  65; 6HR MAX TEMP:  72;                                

HARTFORD       PTSUNNY   73  65  75 N3        29.93R                  
BRIDGEPORT     PTSUNNY   76  72  87 N3        29.92S                  
DANBURY        LGT RAIN  72  66  81 CALM      29.96R                  
GROTON         CLOUDY    74  70  87 SE6       29.91S                  
NEW HAVEN      MOSUNNY   77  72  84 NE3       29.92S                  
CHESTER        CLOUDY    73  72  94 CALM      29.94S                  
MERIDEN        CLOUDY    72  64  76 NW6       29.93S                  
WILLIMANTIC    CLOUDY    71  68  90 CALM      29.93S                  
OXFORD         CLOUDY    70  66  87 NW3       29.96S                  
$$

MEZ002-015-021-024-NHZ003-005-008-011-012-014-VTZ005-008-111300-
NORTHERN NEW ENGLAND
  
CITY           SKY/WX    TMP DP  RH WIND       PRES   REMARKS
PORTLAND ME    PTSUNNY   66  61  84 SE3       29.93S                  
6HR MIN TEMP:  61; 6HR MAX TEMP:  65;                                

BANGOR ME      PTSUNNY   67  61  81 SW3       29.94S                  
CONCORD NH     CLOUDY    65  62  90 CALM      29.94R                  
MANCHESTER NH  PTSUNNY   69  63  81 CALM      29.92S                  
NASHUA NH      PTSUNNY   68  68 100 CALM      29.93F                  
PORTSMOUTH NH  CLOUDY    67  63  86 CALM      29.93S                  
JAFFREY NH     SUNNY     68  62  81 CALM      29.95F                  
KEENE NH       SUNNY     65  64  97 CALM        N/A                   
BURLINGTON VT  MOSUNNY   67  61  81 CALM      29.91F                  
MT. WASHINGTON FOG       47  47 100 W6          N/A  VSB 1/2          
$$

NYZ052-076-111300-
EASTERN NEW YORK
  
CITY           SKY/WX    TMP DP  RH WIND       PRES   REMARKS
ALBANY         PTSUNNY   67  60  78 CALM      29.96R                  
6HR MIN TEMP:  63; 6HR MAX TEMP:  69;                                

NEW YORK CITY  RAIN      74  70  87 NE6       29.90F FOG              
6HR MIN TEMP:  74; 6HR MAX TEMP:  78; 6HR PCP:  0.11;                

$$
 
ANZALL-111300-
MARINE OBSERVATIONS
  
STATION/POSITION TIME  TEMP    WIND        PRES    VSBY  WAVE
                       AIR SEA DIR/SP/G                  HT/PER
                 (UTC) (F)     (DEG/KT/KT) (MB)    (MI)  (FT/S)
BOSTON BUOY      NOT AVBL
BUZZARDS BAY     NOT AVBL
NANTUCKET SOUND  NOT AVBL
MASS BAY-STELLWA NOT AVBL
ISLE OF SHOALS   NOT AVBL
S OF BLOCK IS    NOT AVBL
$$

......................KEY.........................
  SKY/WX - SKY CONDITION/PRESENT WEATHER
  TMP    - TEMPERATURE IN FAHRENHEIT
  DWPT   - DEWPOINT IN FAHRENHEIT
  RH     - RELATIVE HUMIDITY IN PERCENT
  WIND   - DIRECTION AND SPEED IN MPH
  PRES   - MEAN SEA LEVEL PRESSURE IN INCHES OF HG
  WCI    - WIND CHILL INDEX
  VSB    - VISIBILITY IN MILES
  HX     - HEAT INDEX
  TC     - TEMPERATURE IN CELSIUS
  VRB    - VARIABLE WIND DIRECTION
  N/A    - NOT AVAILABLE
  
      

Other recent Regional Weather Roundups

Wed Aug 17, 7:10pm

Wed Aug 17, 6:10pm

Wed Aug 17, 5:10pm

Wed Aug 17, 4:10pm

Wed Aug 17, 3:10pm

Wed Aug 17, 2:10pm

Wed Aug 17, 1:10pm

Wed Aug 17, 12:10pm

Wed Aug 17, 11:10am

Wed Aug 17, 10:10am

Wed Aug 17, 9:10am

Wed Aug 17, 8:10am

Wed Aug 17, 7:10am

Wed Aug 17, 6:10am

Wed Aug 17, 5:10am

Wed Aug 17, 4:10am

Wed Aug 17, 3:10am

Wed Aug 17, 2:10am

Wed Aug 17, 1:10am

Wed Aug 17, 12:10am

Tue Aug 16, 11:10pm

Tue Aug 16, 10:10pm

Tue Aug 16, 9:10pm

Tue Aug 16, 8:10pm

Tue Aug 16, 7:10pm

Tue Aug 16, 6:10pm

Tue Aug 16, 5:10pm

Tue Aug 16, 4:10pm

Tue Aug 16, 3:10pm

Tue Aug 16, 2:10pm

Tue Aug 16, 1:10pm

Tue Aug 16, 12:10pm

Tue Aug 16, 11:10am

Tue Aug 16, 10:10am

Tue Aug 16, 9:10am

Tue Aug 16, 8:10am

Tue Aug 16, 7:10am

Tue Aug 16, 6:10am

Tue Aug 16, 5:10am

Tue Aug 16, 4:10am

Tue Aug 16, 3:10am

Tue Aug 16, 2:10am

Tue Aug 16, 1:10am

Tue Aug 16, 12:10am

Mon Aug 15, 11:10pm

Mon Aug 15, 10:10pm

Mon Aug 15, 9:10pm

Mon Aug 15, 8:10pm

Mon Aug 15, 7:10pm

Mon Aug 15, 6:10pm

Mon Aug 15, 5:10pm

Mon Aug 15, 4:10pm

Mon Aug 15, 3:10pm

Mon Aug 15, 2:10pm

Mon Aug 15, 1:10pm

Mon Aug 15, 12:10pm

Mon Aug 15, 11:10am

Mon Aug 15, 10:10am

Mon Aug 15, 9:10am

Mon Aug 15, 8:10am

Mon Aug 15, 7:10am

Mon Aug 15, 6:10am

Mon Aug 15, 5:10am

Mon Aug 15, 4:10am

Mon Aug 15, 3:10am

Mon Aug 15, 2:10am

Mon Aug 15, 1:10am

Mon Aug 15, 12:10am

Sun Aug 14, 11:10pm

Sun Aug 14, 10:10pm

Sun Aug 14, 9:10pm

Sun Aug 14, 8:10pm

Sun Aug 14, 7:10pm

Sun Aug 14, 6:10pm

Sun Aug 14, 5:10pm

Sun Aug 14, 4:10pm

Sun Aug 14, 3:10pm

Sun Aug 14, 2:10pm

Sun Aug 14, 1:10pm

Sun Aug 14, 12:10pm

Sun Aug 14, 11:10am

Sun Aug 14, 10:10am

Sun Aug 14, 9:10am

Sun Aug 14, 8:10am

Sun Aug 14, 7:10am

Sun Aug 14, 6:10am

Sun Aug 14, 5:10am

Sun Aug 14, 4:10am

Sun Aug 14, 3:10am

Sun Aug 14, 2:10am

Sun Aug 14, 1:10am

Sun Aug 14, 12:10am

Sat Aug 13, 11:10pm

Sat Aug 13, 10:10pm

Sat Aug 13, 9:10pm

Sat Aug 13, 8:10pm

Sat Aug 13, 7:10pm

Sat Aug 13, 6:10pm

Sat Aug 13, 5:10pm

Sat Aug 13, 4:10pm

Sat Aug 13, 3:10pm

Sat Aug 13, 2:10pm

Sat Aug 13, 1:10pm

Sat Aug 13, 12:10pm

Sat Aug 13, 11:10am

Sat Aug 13, 10:10am

Sat Aug 13, 9:10am

Sat Aug 13, 8:10am

Sat Aug 13, 7:10am

Sat Aug 13, 6:10am

Sat Aug 13, 5:10am

Sat Aug 13, 4:10am

Sat Aug 13, 3:10am

Sat Aug 13, 2:10am

Sat Aug 13, 1:10am

Sat Aug 13, 12:10am

Fri Aug 12, 11:10pm

Fri Aug 12, 10:10pm

Fri Aug 12, 9:10pm

Fri Aug 12, 8:10pm

Fri Aug 12, 7:10pm

Fri Aug 12, 6:10pm

Fri Aug 12, 5:10pm

Fri Aug 12, 4:10pm

Fri Aug 12, 3:10pm

Fri Aug 12, 2:10pm

Fri Aug 12, 1:10pm

Fri Aug 12, 12:10pm

Fri Aug 12, 11:10am

Fri Aug 12, 10:10am

Fri Aug 12, 9:10am

Fri Aug 12, 8:10am

Fri Aug 12, 7:10am

Fri Aug 12, 6:10am

Fri Aug 12, 5:10am

Fri Aug 12, 4:10am

Fri Aug 12, 3:10am

Fri Aug 12, 2:10am

Fri Aug 12, 1:10am

Fri Aug 12, 12:10am

Thu Aug 11, 11:10pm

Thu Aug 11, 10:10pm

Thu Aug 11, 9:10pm

Thu Aug 11, 8:10pm

Thu Aug 11, 7:10pm

Thu Aug 11, 6:10pm

Thu Aug 11, 5:10pm

Thu Aug 11, 4:10pm

Thu Aug 11, 3:10pm

Thu Aug 11, 2:10pm

Thu Aug 11, 1:10pm

Thu Aug 11, 12:10pm

Thu Aug 11, 11:10am

Thu Aug 11, 10:10am

Thu Aug 11, 9:10am

Thu Aug 11, 7:10am

Thu Aug 11, 6:10am

Thu Aug 11, 5:10am

Thu Aug 11, 4:10am

Thu Aug 11, 3:10am

Thu Aug 11, 2:10am

Thu Aug 11, 1:10am

Thu Aug 11, 12:10am

Wed Aug 10, 11:10pm

Wed Aug 10, 10:10pm

Wed Aug 10, 9:10pm

Wed Aug 10, 8:10pm

Meta data:

ID: 055e0272-2295-43e4-af79-d3527ac2b256
Link: https://api.weather.gov/products/055e0272-2295-43e4-af79-d3527ac2b256